Regional Weather Roundup
Issued by NWS Goodland, KS

Home | Current Version | Previous Version | Graphics & Text | Print | Product List | Glossary On
Versions: 1 2 3 4 5 6 7 8 9 10 11 12 13 14 15 16 17 18 19 20 21 22 23 24 25 26 27 28 29 30 31 32 33 34 35 36 37 38 39 40 41 42 43 44 45 46 47 48 49 50
000
ASUS43 KGLD 132359
RWRGLD

GOODLAND FORECAST AREA HOURLY WEATHER ROUNDUP
NATIONAL WEATHER SERVICE GOODLAND KS
500 PM MST WED DEC 13 2017

...OFFICIAL OBSERVATIONS...

CITY           SKY/WX    TMP DP  RH WIND       PRES   REMARKS
GOODLAND KS    CLEAR     42  14  32 N9        29.97S
HILL CITY KS   CLOUDY    44  15  31 N12       29.97R
IMPERIAL NEB   CLEAR     35  15  44 N8        30.00R
MCCOOK NEB     CLEAR     36  17  46 N8        29.98R
AKRON CO       CLOUDY    44  12  27 N17       30.01S
BURLINGTON CO  CLOUDY    43  14  31 NW8       30.01R
LIMON CO       PTCLDY    32   9  38 N3        30.03S
$$

...UNOFFICIAL OBSERVATIONS...

CITY           SKY/WX    TMP DP  RH WIND       PRES   REMARKS
LENORA KS        N/A     44  32  63 N6          N/A
NORTON KS      CLEAR     37  12  35 N9        29.97
SHARON SPRINGS   N/A     45  16  30 N7          N/A
TRENTON NEB      N/A     38  32  79 N6          N/A
KIT CARSON CO    N/A     43  14  30 MISG        N/A
YUMA CO        CLOUDY    43  14  31 N12       29.99S
$$




USA.gov is the U.S. government's official web portal to all federal, state and local government web resources and services.